EZY81DL EGPH-EGBB

Flight info

Callsign EZY81DL
Flight time 0h 45m
Altitude 27000
Route GOSAM P600 FENIK L612 NAVSO DCT AKOMU DCT VAMEB UL612 CROFT
Aircraft A320/M-SDE3FGHIRWY/LB1

Departure

Time 2026-04-20 18:32
Airport Edinburgh Airport (EGPH)

Arrival

Time 2026-04-20 19:18
Airport Birmingham Airport (EGBB)
Time Latitude Longitude Altitude Speed Heading
2026-04-20 17:13 55.94810 -3.35749 117 ft 0 kts 208°
2026-04-20 18:20 55.94816 -3.35744 114 ft 4 kts 208°
2026-04-20 18:20 55.94840 -3.35721 112 ft 4 kts 208°
2026-04-20 18:21 55.94863 -3.35698 114 ft 4 kts 208°
2026-04-20 18:21 55.94870 -3.35691 114 ft 0 kts 208°
2026-04-20 18:23 55.94868 -3.35704 115 ft 2 kts 255°
2026-04-20 18:23 55.94882 -3.35735 115 ft 5 kts 312°
2026-04-20 18:24 55.94912 -3.35800 115 ft 8 kts 305°
2026-04-20 18:24 55.94951 -3.35862 116 ft 7 kts 333°
2026-04-20 18:24 55.94993 -3.35853 113 ft 6 kts 31°
2026-04-20 18:24 55.95034 -3.35831 115 ft 6 kts 350°
2026-04-20 18:25 55.95061 -3.35883 114 ft 6 kts 297°
2026-04-20 18:25 55.95084 -3.35965 114 ft 10 kts 296°
2026-04-20 18:25 55.95109 -3.36089 116 ft 10 kts 288°
2026-04-20 18:25 55.95130 -3.36206 113 ft 10 kts 288°
2026-04-20 18:26 55.95124 -3.36320 112 ft 9 kts 241°
2026-04-20 18:26 55.95089 -3.36415 114 ft 10 kts 238°
2026-04-20 18:26 55.95045 -3.36545 114 ft 12 kts 238°
2026-04-20 18:26 55.95001 -3.36674 115 ft 12 kts 239°
2026-04-20 18:27 55.94960 -3.36796 114 ft 11 kts 239°
2026-04-20 18:27 55.94915 -3.36930 114 ft 16 kts 238°
2026-04-20 18:27 55.94856 -3.37098 115 ft 15 kts 238°
2026-04-20 18:27 55.94803 -3.37257 112 ft 14 kts 239°
2026-04-20 18:28 55.94754 -3.37404 115 ft 13 kts 239°
2026-04-20 18:28 55.94709 -3.37538 113 ft 12 kts 239°
2026-04-20 18:28 55.94672 -3.37650 113 ft 9 kts 240°
2026-04-20 18:28 55.94635 -3.37755 115 ft 12 kts 238°
2026-04-20 18:29 55.94594 -3.37876 114 ft 11 kts 239°
2026-04-20 18:29 55.94556 -3.37987 113 ft 10 kts 239°
2026-04-20 18:29 55.94522 -3.38087 114 ft 10 kts 239°
2026-04-20 18:29 55.94470 -3.38240 113 ft 16 kts 239°
2026-04-20 18:30 55.94415 -3.38405 113 ft 15 kts 239°
2026-04-20 18:30 55.94364 -3.38557 115 ft 14 kts 241°
2026-04-20 18:30 55.94318 -3.38697 113 ft 12 kts 239°
2026-04-20 18:30 55.94283 -3.38828 116 ft 11 kts 271°
2026-04-20 18:31 55.94331 -3.38917 115 ft 10 kts 329°
2026-04-20 18:31 55.94392 -3.38981 114 ft 10 kts 330°
2026-04-20 18:31 55.94421 -3.38969 114 ft 1 kts 59°
2026-04-20 18:31 55.94422 -3.38967 114 ft 0 kts 59°
2026-04-20 18:32 55.94458 -3.38856 113 ft 41 kts 59°
2026-04-20 18:32 55.94732 -3.38040 114 ft 108 kts 59°
2026-04-20 18:32 55.95212 -3.36618 183 ft 153 kts 59°
2026-04-20 18:32 55.95755 -3.35020 887 ft 152 kts 59°
2026-04-20 18:33 55.96417 -3.33526 1553 ft 162 kts 46°
2026-04-20 18:33 55.97325 -3.32065 1903 ft 185 kts 44°
2026-04-20 18:33 55.98331 -3.30463 2288 ft 207 kts 44°
2026-04-20 18:33 55.99497 -3.28708 2700 ft 233 kts 35°
2026-04-20 18:34 56.01125 -3.28017 3403 ft 254 kts 356°
2026-04-20 18:34 56.02754 -3.29307 4326 ft 266 kts 319°
2026-04-20 18:34 56.03716 -3.32146 5287 ft 274 kts 283°
2026-04-20 18:34 56.03716 -3.35551 6213 ft 278 kts 259°
2026-04-20 18:35 56.03189 -3.38886 7185 ft 280 kts 250°
2026-04-20 18:35 56.02503 -3.42171 8055 ft 284 kts 248°
2026-04-20 18:35 56.01807 -3.45498 8914 ft 289 kts 248°
2026-04-20 18:35 56.01150 -3.48931 9276 ft 292 kts 251°
2026-04-20 18:36 56.00560 -3.52401 9446 ft 294 kts 252°
2026-04-20 18:36 56.00020 -3.55914 10396 ft 293 kts 253°
2026-04-20 18:36 55.99490 -3.59547 10847 ft 314 kts 253°
2026-04-20 18:36 55.98935 -3.63446 11258 ft 331 kts 254°
2026-04-20 18:37 55.98366 -3.67481 11938 ft 338 kts 253°
2026-04-20 18:37 55.97490 -3.71364 12725 ft 338 kts 236°
2026-04-20 18:37 55.95945 -3.74492 13526 ft 336 kts 215°
2026-04-20 18:37 55.93897 -3.76460 14255 ft 335 kts 194°
2026-04-20 18:38 55.91645 -3.77080 14903 ft 334 kts 179°
2026-04-20 18:38 55.89315 -3.77229 15584 ft 336 kts 179°
2026-04-20 18:38 55.86960 -3.77364 16266 ft 339 kts 179°
2026-04-20 18:38 55.84587 -3.77496 16941 ft 343 kts 179°
2026-04-20 18:39 55.82193 -3.77630 17619 ft 346 kts 179°
2026-04-20 18:39 55.79776 -3.77773 18286 ft 349 kts 179°
2026-04-20 18:39 55.77338 -3.77923 18910 ft 352 kts 179°
2026-04-20 18:39 55.74878 -3.78076 19487 ft 355 kts 179°
2026-04-20 18:40 55.72404 -3.78228 20065 ft 358 kts 180°
2026-04-20 18:40 55.69907 -3.78384 20636 ft 361 kts 180°
2026-04-20 18:40 55.67385 -3.78546 21211 ft 363 kts 180°
2026-04-20 18:40 55.64850 -3.78711 21783 ft 366 kts 180°
2026-04-20 18:41 55.62301 -3.78875 22324 ft 369 kts 180°
2026-04-20 18:41 55.59723 -3.79035 22844 ft 372 kts 180°
2026-04-20 18:41 55.57126 -3.79194 23351 ft 375 kts 180°
2026-04-20 18:41 55.54509 -3.79352 23888 ft 377 kts 180°
2026-04-20 18:42 55.51878 -3.79510 24340 ft 379 kts 180°
2026-04-20 18:42 55.49234 -3.79676 24737 ft 382 kts 180°
2026-04-20 18:42 55.46566 -3.79847 25126 ft 386 kts 181°
2026-04-20 18:42 55.43894 -3.80014 25444 ft 391 kts 182°
2026-04-20 18:43 55.41162 -3.80186 25782 ft 395 kts 182°
2026-04-20 18:43 55.38398 -3.80359 26179 ft 398 kts 182°
2026-04-20 18:43 55.35621 -3.80529 26548 ft 401 kts 182°
2026-04-20 18:43 55.32815 -3.80698 26909 ft 405 kts 182°
2026-04-20 18:44 55.29987 -3.80871 27250 ft 408 kts 182°
2026-04-20 18:44 55.27157 -3.81046 27323 ft 400 kts 182°
2026-04-20 18:44 55.24433 -3.81093 27334 ft 384 kts 176°
2026-04-20 18:44 55.21797 -3.80361 27333 ft 384 kts 165°
2026-04-20 18:45 55.19286 -3.78774 27327 ft 386 kts 155°
2026-04-20 18:45 55.16874 -3.76663 27328 ft 389 kts 154°
2026-04-20 18:45 55.14444 -3.74554 27329 ft 390 kts 154°
2026-04-20 18:45 55.12005 -3.72459 27334 ft 391 kts 155°
2026-04-20 18:46 55.09562 -3.70376 27331 ft 390 kts 154°
2026-04-20 18:46 55.07123 -3.68306 27331 ft 390 kts 155°
2026-04-20 18:46 55.04683 -3.66233 27331 ft 390 kts 155°
2026-04-20 18:46 55.02245 -3.64158 27329 ft 391 kts 155°
2026-04-20 18:47 54.99800 -3.62074 27324 ft 391 kts 155°
2026-04-20 18:47 54.97359 -3.59990 27325 ft 391 kts 155°
2026-04-20 18:47 54.94931 -3.57918 27317 ft 391 kts 155°
2026-04-20 18:47 54.92486 -3.55837 27308 ft 392 kts 155°
2026-04-20 18:48 54.90037 -3.53760 27304 ft 392 kts 155°
2026-04-20 18:48 54.88413 -3.52384 27304 ft 393 kts 155°
2026-04-20 18:48 54.85954 -3.50300 27303 ft 394 kts 155°
2026-04-20 18:48 54.83492 -3.48215 27303 ft 394 kts 155°
2026-04-20 18:49 54.81029 -3.46134 27316 ft 394 kts 155°
2026-04-20 18:49 54.77756 -3.43382 27317 ft 394 kts 155°
2026-04-20 18:49 54.76086 -3.41976 27320 ft 394 kts 155°
2026-04-20 18:49 54.72821 -3.39230 27326 ft 394 kts 155°
2026-04-20 18:50 54.71153 -3.37831 27325 ft 394 kts 155°
2026-04-20 18:50 54.68710 -3.35783 27318 ft 395 kts 155°
2026-04-20 18:50 54.66235 -3.33712 27317 ft 395 kts 155°
2026-04-20 18:50 54.63762 -3.31648 27318 ft 396 kts 155°
2026-04-20 18:51 54.61281 -3.29574 27321 ft 396 kts 155°
2026-04-20 18:51 54.58802 -3.27502 27319 ft 396 kts 155°
2026-04-20 18:51 54.56324 -3.25435 27319 ft 396 kts 155°
2026-04-20 18:51 54.53842 -3.23364 27321 ft 396 kts 155°
2026-04-20 18:52 54.51360 -3.21297 27328 ft 396 kts 155°
2026-04-20 18:52 54.48875 -3.19235 27326 ft 396 kts 155°
2026-04-20 18:52 54.46387 -3.17177 27329 ft 397 kts 155°
2026-04-20 18:52 54.43906 -3.15127 27321 ft 397 kts 155°
2026-04-20 18:53 54.41416 -3.13075 27322 ft 397 kts 155°
2026-04-20 18:53 54.38921 -3.11019 27321 ft 397 kts 155°
2026-04-20 18:53 54.36431 -3.08967 27322 ft 397 kts 155°
2026-04-20 18:53 54.33934 -3.06913 27324 ft 398 kts 155°
2026-04-20 18:54 54.31435 -3.04858 27326 ft 398 kts 155°
2026-04-20 18:54 54.28943 -3.02811 27325 ft 398 kts 155°
2026-04-20 18:54 54.26445 -3.00764 27326 ft 398 kts 155°
2026-04-20 18:54 54.23948 -2.98723 27328 ft 398 kts 155°
2026-04-20 18:55 54.21451 -2.96683 27337 ft 398 kts 155°
2026-04-20 18:55 54.18952 -2.94645 27324 ft 398 kts 156°
2026-04-20 18:55 54.16444 -2.92612 27321 ft 399 kts 157°
2026-04-20 18:55 54.13912 -2.90665 27320 ft 399 kts 158°
2026-04-20 18:56 54.11363 -2.88803 27320 ft 399 kts 159°
2026-04-20 18:56 54.08794 -2.86977 27313 ft 400 kts 159°
2026-04-20 18:56 54.06228 -2.85163 27312 ft 400 kts 159°
2026-04-20 18:56 54.03654 -2.83332 27311 ft 400 kts 159°
2026-04-20 18:57 54.01087 -2.81489 27309 ft 400 kts 159°
2026-04-20 18:57 53.98557 -2.79664 27321 ft 400 kts 159°
2026-04-20 18:57 53.95991 -2.77802 27312 ft 401 kts 159°
2026-04-20 18:57 53.93395 -2.75913 27314 ft 401 kts 159°
2026-04-20 18:58 53.90832 -2.74051 27309 ft 401 kts 159°
2026-04-20 18:58 53.88293 -2.72212 27319 ft 402 kts 159°
2026-04-20 18:58 53.85720 -2.70354 27320 ft 402 kts 159°
2026-04-20 18:58 53.83147 -2.68500 27322 ft 402 kts 159°
2026-04-20 18:59 53.80533 -2.66625 27318 ft 402 kts 159°
2026-04-20 18:59 53.77959 -2.64780 27322 ft 402 kts 159°
2026-04-20 18:59 53.75378 -2.62931 27322 ft 402 kts 159°
2026-04-20 18:59 53.72833 -2.61108 27323 ft 403 kts 159°
2026-04-20 19:00 53.70253 -2.59264 27298 ft 403 kts 159°
2026-04-20 19:00 53.67659 -2.57415 26685 ft 406 kts 159°
2026-04-20 19:00 53.65034 -2.55552 26211 ft 402 kts 159°
2026-04-20 19:00 53.62528 -2.53665 25755 ft 399 kts 153°
2026-04-20 19:01 53.60156 -2.51272 25286 ft 396 kts 149°
2026-04-20 19:01 53.57817 -2.48847 24802 ft 393 kts 149°
2026-04-20 19:01 53.55493 -2.46448 24342 ft 391 kts 149°
2026-04-20 19:01 53.53185 -2.44075 23859 ft 388 kts 149°
2026-04-20 19:02 53.50886 -2.41722 23339 ft 385 kts 149°
2026-04-20 19:02 53.48604 -2.39387 22880 ft 381 kts 149°
2026-04-20 19:02 53.46350 -2.37086 22424 ft 377 kts 149°
2026-04-20 19:02 53.44118 -2.34809 21979 ft 374 kts 149°
2026-04-20 19:03 53.41908 -2.32553 21535 ft 371 kts 149°
2026-04-20 19:03 53.39713 -2.30314 21099 ft 368 kts 149°
2026-04-20 19:03 53.37532 -2.28090 20684 ft 365 kts 149°
2026-04-20 19:03 53.35389 -2.25910 20471 ft 356 kts 149°
2026-04-20 19:04 53.33267 -2.23843 20181 ft 350 kts 150°
2026-04-20 19:04 53.31149 -2.21874 19835 ft 346 kts 151°
2026-04-20 19:04 53.29057 -2.19968 19560 ft 340 kts 151°
2026-04-20 19:04 53.26975 -2.18077 19161 ft 340 kts 151°
2026-04-20 19:05 53.24912 -2.16201 18847 ft 336 kts 151°
2026-04-20 19:05 53.22871 -2.14343 18533 ft 332 kts 151°
2026-04-20 19:05 53.20849 -2.12496 18110 ft 331 kts 151°
2026-04-20 19:05 53.18833 -2.10649 17648 ft 331 kts 150°
2026-04-20 19:06 53.16815 -2.08798 17283 ft 329 kts 150°
2026-04-20 19:06 53.14848 -2.06995 16941 ft 327 kts 150°
2026-04-20 19:06 53.12834 -2.05151 16288 ft 333 kts 151°
2026-04-20 19:06 53.10777 -2.03272 15653 ft 340 kts 150°
2026-04-20 19:07 53.08684 -2.01362 15012 ft 346 kts 150°
2026-04-20 19:07 53.06568 -1.99432 14379 ft 345 kts 150°
2026-04-20 19:07 53.04413 -1.97819 13718 ft 337 kts 161°
2026-04-20 19:07 53.02140 -1.97033 13045 ft 331 kts 174°
2026-04-20 19:08 52.99870 -1.96744 12377 ft 324 kts 175°
2026-04-20 19:08 52.95451 -1.96171 11088 ft 313 kts 174°
2026-04-20 19:08 52.93296 -1.95888 10456 ft 308 kts 174°
2026-04-20 19:09 52.91177 -1.95608 9796 ft 303 kts 174°
2026-04-20 19:09 52.89093 -1.95330 9120 ft 299 kts 174°
2026-04-20 19:09 52.87032 -1.95059 8455 ft 294 kts 174°
2026-04-20 19:09 52.85004 -1.94797 7804 ft 290 kts 173°
2026-04-20 19:10 52.83004 -1.94539 7161 ft 286 kts 174°
2026-04-20 19:10 52.81061 -1.94286 6657 ft 278 kts 174°
2026-04-20 19:10 52.79194 -1.94044 6369 ft 261 kts 173°
2026-04-20 19:10 52.77439 -1.93815 6104 ft 245 kts 174°
2026-04-20 19:11 52.75782 -1.93597 5846 ft 234 kts 174°
2026-04-20 19:11 52.74166 -1.93384 5583 ft 231 kts 173°
2026-04-20 19:11 52.72568 -1.93172 5325 ft 230 kts 173°
2026-04-20 19:11 52.70973 -1.92962 5066 ft 229 kts 173°
2026-04-20 19:12 52.69390 -1.92758 4800 ft 227 kts 173°
2026-04-20 19:12 52.67818 -1.92557 4536 ft 226 kts 173°
2026-04-20 19:12 52.66255 -1.92355 4273 ft 225 kts 173°
2026-04-20 19:12 52.64702 -1.92152 4003 ft 223 kts 172°
2026-04-20 19:13 52.63159 -1.91952 3752 ft 222 kts 172°
2026-04-20 19:13 52.61624 -1.91754 3494 ft 220 kts 172°
2026-04-20 19:13 52.60161 -1.91227 3236 ft 212 kts 150°
2026-04-20 19:13 52.58934 -1.89953 3053 ft 205 kts 141°
2026-04-20 19:14 52.57783 -1.88656 2999 ft 196 kts 141°
2026-04-20 19:14 52.56687 -1.87425 2842 ft 185 kts 141°
2026-04-20 19:14 52.55663 -1.86279 2613 ft 170 kts 141°
2026-04-20 19:14 52.54717 -1.85221 2387 ft 160 kts 141°
2026-04-20 19:15 52.53809 -1.84204 2162 ft 156 kts 140°
2026-04-20 19:15 52.52935 -1.83228 1941 ft 147 kts 140°
2026-04-20 19:15 52.52104 -1.82298 1748 ft 143 kts 140°
2026-04-20 19:15 52.51297 -1.81398 1557 ft 141 kts 141°
2026-04-20 19:16 52.50474 -1.80481 1376 ft 141 kts 141°
2026-04-20 19:16 52.49669 -1.79591 1170 ft 141 kts 141°
2026-04-20 19:16 52.48868 -1.78680 954 ft 139 kts 141°
2026-04-20 19:16 52.48076 -1.77775 773 ft 139 kts 142°
2026-04-20 19:17 52.47260 -1.76887 573 ft 141 kts 143°
2026-04-20 19:17 52.46449 -1.75987 379 ft 141 kts 143°
2026-04-20 19:17 52.45673 -1.75103 323 ft 119 kts 147°
2026-04-20 19:17 52.45126 -1.74512 328 ft 70 kts 146°
2026-04-20 19:18 52.44817 -1.74169 322 ft 45 kts 146°
2026-04-20 19:18 52.44662 -1.73993 325 ft 13 kts 135°
2026-04-20 19:18 52.44681 -1.73869 325 ft 12 kts 54°
2026-04-20 19:18 52.44732 -1.73751 323 ft 14 kts 53°
2026-04-20 19:19 52.44811 -1.73691 323 ft 13 kts 15°
2026-04-20 19:19 52.44879 -1.73605 323 ft 13 kts 57°
2026-04-20 19:19 52.44910 -1.73484 322 ft 12 kts 62°
2026-04-20 19:19 52.44962 -1.73361 323 ft 14 kts 55°
2026-04-20 19:20 52.45010 -1.73246 324 ft 7 kts 55°
2026-04-20 19:20 52.45032 -1.73233 324 ft 2 kts 351°
2026-04-20 19:20 52.45041 -1.73245 323 ft 1 kts 323°
2026-04-20 19:20 52.45047 -1.73252 323 ft 1 kts 324°
2026-04-20 19:21 52.45052 -1.73257 323 ft 1 kts 325°
2026-04-20 19:21 52.45058 -1.73264 324 ft 2 kts 326°
2026-04-20 19:21 52.45063 -1.73270 323 ft 0 kts 326°
2026-04-20 19:24 52.45063 -1.73269 324 ft 0 kts 326°
2026-04-20 19:25 52.45062 -1.73269 324 ft 0 kts 326°